Location: Poughquag
(41.6090°N, 73.6820°W)
Time: 19:49:11
(UTC-05:00)

A-11 Canister half - Pass Details

Date: 09 December 2023
Orbit: 1526 x 1682 km, 47.3° (Epoch: 23 February)

Event Time Altitude Azimuth Distance (km) Brightness Sun altitude
Rises 19:36:54 0° 264° (W) 4,926 12.7 -35.1°
Reaches altitude 10° 19:40:07 10° 267° (W) 3,942 11.9 -35.7°
Maximum altitude 19:50:14 67° 350° (N) 1,791 9.2 -37.6°
Enters shadow 19:50:37 67° 2° (N) 1,795 9.1 -37.7°
